FREGAT DEB, 45847

Orbit data source: Space-Track

FREGAT DEB, 45847 is space debris in LEO originally from a launch on Mon, 18 Jul 2011 UTC launched from the Tyuratam Missile And Space Complex (TTMTR). Debris objects in space refer to the collection of defunct objects orbiting the Earth. Examples of debris include non-operational satellites, rocket bodies, and fragments generated from explosions, collisions, or faulty payload assembly.

Loading next visibility...
FREGAT DEB details
Identifier
45847, 2011-037CH
Orbit
LEO
Last TLE update19 hours ago
Origin
Flag of CISVVKO VKS (CIS)
ManufacturerLavochkin
MissionSpacecraft
Bus & MotorUnknown
MassUnknown
Launch date (UTC)
2011-07-18 (13 years ago)
Launch vehicleUnknown
Launch site
Tyuratam Missile And Space Complex (TTMTR)
Object type
Payload
Rocket body
Debris
Shape & HBRUnknown
Radar Cross SectionSmall (<0.1 m²)

Expand to show TLE details & history

TLE from 19 hours ago
0 FREGAT DEB
1 45847U 11037CH  24339.33833386  .00070128  00000-0  67490-2 0  9994
2 45847  51.4039  14.6694 1411948  77.4720 298.0000 12.44641887188828
Epoch: 2024-12-04T08:07Z
Definitive object data (Epoch: 2024-12-04T08:07:12.045Z)
Latitude-0.00004°
Longitude179.23426°
Altitude1,100.164 km
Speed7.481 km/s
True Right ascension00h 58m 40s
True Declination0° 00' 00"
Sunlit
Object was in daylight at TLE epoch
Visualization TLE readout
Latitude-31.32323°
Longitude147.85187°
Altitude1,939.568 km
Speed6.725 km/s
Apparent Right ascension20h 06m 00s
Apparent Declination-64° 09' 22"
Sunlit
Object is in daylight
Visualization observer readout
Local Sidereal Time01:07:07
Azimuth208.976° SW
Elevation-29.506°
Doppler factor1
Orbital elements
Apogee altitude2,598.059 km
Perigee altitude376.891 km
Semi-major axis7,865.612 km
Eccentricity0.1411948
Inclination51.4039°
RAAN14.6694°
Arg. of periapsis77.472°
True anomaly282.61735°
Mean anomaly298°
Eccentric anomaly290.41842°
Mean motion3.11132 °/min
BSTAR0.006749
Orbital period115.71 mins
Loading maneuver chart data...
Loading historical data...
Loading historical data...
Loading historical data...
Loading historical data...
Loading historical data...
Loading historical data...
Loading historical data...

FREGAT DEB Visibility forecast

Observer location: undefined°, undefined

Span
Click to sort rows by Start time (UTC) header in descending order
Start Az.
Max El. time (UTC)
Max El. Az.
Max El.
End time (UTC)
End Az.
6 mins2024-12-05 05:29:55.456Z230.091° WSW2024-12-05 05:33:55.456Z74.201° E44.014°2024-12-05 05:35:55.456Z54.942° ENE
7 mins2024-12-05 11:34:55.456Z320.796° NNW2024-12-05 11:36:55.456Z39.064° NE41.941°2024-12-05 11:41:55.456Z117.493° SE
6 mins2024-12-05 13:35:55.456Z247.92° W2024-12-05 13:37:55.456Z217.133° SW19.65°2024-12-05 13:41:55.456Z179.189° S
|